Date String (YYYY-MM-DD hh:mm:ss) UTC,Instrument flags,Ambient pressure (hPa),Sample flow (lpm),Bypass flow (lpm),Sample temperature (°C),Ambient temperature (°C),ASC tube jacket temperature (°C),LED temperature (°C),Box temperature (°C),Sample RH (%),Span deviation,Mass concentration (μg/m³),Mass concentration (μg/m³),Mass concentration (μg/m³)
DateTimeUTC,F1_M11,P_M11,Q1_M11,Q2_M11,T1_M11,T2_M11,T3_M11,T4_M11,T5_M11,U1_M11,ZSPAN_M11,X0_M11,X2_M11,X1_M11
2021-11-06 16:00:00,,0827.4,4.99,0.00,28.1,27.3,00.0,36.9,30.0,07.9,0000.0,0003.53,0001.36,0000.90
2021-11-06 16:01:00,,0827.5,4.99,0.00,28.1,27.4,00.0,37.0,30.0,07.8,0000.0,0003.60,0001.39,0000.89
2021-11-06 16:02:00,,0827.6,5.00,0.00,28.1,27.4,00.0,37.0,30.0,07.9,0000.0,0003.14,0001.40,0000.90
2021-11-06 16:03:00,,0827.6,5.01,0.00,28.2,27.4,00.0,37.0,30.1,07.7,0000.0,0003.33,0001.43,0000.90
2021-11-06 16:04:00,,0827.5,5.00,0.00,28.2,27.4,00.0,37.0,30.1,07.7,0000.0,0003.50,0001.44,0000.91
2021-11-06 16:05:00,,0827.5,5.00,0.00,28.2,27.5,00.0,37.0,30.1,07.6,0000.0,0003.32,0001.43,0000.90
2021-11-06 16:06:00,,0827.5,5.00,0.00,28.2,27.5,00.0,37.1,30.1,07.4,0000.0,0003.36,0001.44,0000.90
2021-11-06 16:07:00,,0827.5,5.00,0.00,28.3,27.5,00.0,37.1,30.1,07.4,0000.0,0003.38,0001.45,0000.91
2021-11-06 16:08:00,,0827.5,5.00,0.00,28.3,27.5,00.0,37.1,30.2,08.0,0000.0,0003.66,0001.45,0000.91
2021-11-06 16:09:00,,0827.5,5.01,0.00,28.3,27.5,00.0,37.1,30.2,08.7,0000.0,0004.63,0001.49,0000.92
2021-11-06 16:10:00,,0827.5,4.99,0.00,28.3,27.5,00.0,37.1,30.2,08.8,0000.0,0006.85,0001.53,0000.93
2021-11-06 16:11:00,,0827.5,5.00,0.00,28.3,27.6,00.0,37.2,30.2,08.6,0000.0,0008.17,0001.55,0000.94
2021-11-06 16:12:00,,0827.5,4.99,0.00,28.4,27.6,00.0,37.2,30.2,08.6,0000.0,0009.13,0001.60,0000.95
2021-11-06 16:13:00,,0827.4,5.01,0.00,28.4,27.6,00.0,37.2,30.2,08.7,0000.0,0009.90,0001.62,0000.95
2021-11-06 16:14:00,,0827.4,5.00,0.00,28.4,27.6,00.0,37.2,30.2,09.2,0000.0,0009.92,0001.71,0000.98
2021-11-06 16:15:00,,0827.4,5.00,0.00,28.4,27.6,00.0,37.3,30.3,09.5,0000.0,0010.32,0001.98,0001.08
2021-11-06 16:16:00,,0827.4,5.00,0.00,28.4,27.7,00.0,37.3,30.3,09.5,0000.0,0011.04,0002.26,0001.17
2021-11-06 16:17:00,,0827.4,5.00,0.00,28.5,27.7,00.0,37.3,30.3,09.3,0000.0,0011.91,0002.40,0001.22
2021-11-06 16:18:00,,0827.3,4.99,0.00,28.5,27.7,00.0,37.3,30.3,09.0,0000.0,0012.92,0002.54,0001.25
2021-11-06 16:19:00,,0827.3,5.01,0.00,28.5,27.7,00.0,37.3,30.3,09.4,0000.0,0013.46,0002.65,0001.28
2021-11-06 16:20:00,,0827.3,5.00,0.00,28.5,27.7,00.0,37.4,30.3,09.2,0000.0,0013.15,0002.80,0001.32
2021-11-06 16:21:00,,0827.4,5.00,0.00,28.5,27.7,00.0,37.4,30.4,09.0,0000.0,0012.66,0002.90,0001.35
2021-11-06 16:22:00,,0827.4,5.01,0.00,28.5,27.7,00.0,37.4,30.4,09.0,0000.0,0011.29,0002.99,0001.39
2021-11-06 16:23:00,,0827.4,4.99,0.00,28.6,27.8,00.0,37.4,30.4,09.1,0000.0,0010.96,0003.10,0001.43
2021-11-06 16:24:00,,0827.4,5.01,0.00,28.6,27.8,00.0,37.4,30.4,09.3,0000.0,0010.51,0003.18,0001.47
2021-11-06 16:25:00,,0827.4,5.01,0.00,28.6,27.8,00.0,37.5,30.4,09.5,0000.0,0010.87,0003.25,0001.50
2021-11-06 16:26:00,,0827.5,4.99,0.00,28.6,27.8,00.0,37.5,30.4,09.7,0000.0,0011.65,0003.27,0001.47
2021-11-06 16:27:00,,0827.5,5.01,0.00,28.6,27.9,00.0,37.5,30.5,09.7,0000.0,0011.53,0003.21,0001.45
2021-11-06 16:28:00,,0827.7,5.01,0.00,28.6,27.9,00.0,37.5,30.5,09.9,0000.0,0010.84,0003.20,0001.45
2021-11-06 16:29:00,,0827.8,5.01,0.00,28.7,27.9,00.0,37.5,30.5,09.8,0000.0,0010.11,0003.21,0001.48
2021-11-06 16:30:00,,0827.6,5.00,0.00,28.7,28.0,00.0,37.6,30.5,09.4,0000.0,0010.00,0003.25,0001.52
2021-11-06 16:31:00,,0827.5,4.99,0.00,28.7,28.0,00.0,37.6,30.6,09.0,0000.0,0009.84,0003.25,0001.57
2021-11-06 16:32:00,,0827.4,5.00,0.00,28.7,28.0,00.0,37.6,30.6,09.0,0000.0,0009.68,0003.24,0001.62
2021-11-06 16:33:00,,0827.4,5.00,0.00,28.7,28.0,00.0,37.6,30.6,09.1,0000.0,0009.66,0003.25,0001.65
2021-11-06 16:34:00,,0827.4,5.00,0.00,28.7,28.0,00.0,37.6,30.6,09.3,0000.0,0009.89,0003.25,0001.67
2021-11-06 16:35:00,,0827.5,5.00,0.00,28.7,28.0,00.0,37.6,30.6,09.5,0000.0,0009.69,0003.23,0001.71
2021-11-06 16:36:00,,0827.6,4.99,0.00,28.7,28.0,00.0,37.7,30.6,09.3,0000.0,0009.35,0003.21,0001.73
2021-11-06 16:37:00,,0827.5,5.00,0.00,28.8,28.0,00.0,37.7,30.6,09.5,0000.0,0009.03,0003.17,0001.75
2021-11-06 16:38:00,,0827.4,5.00,0.00,28.8,28.0,00.0,37.7,30.6,09.3,0000.0,0008.68,0003.15,0001.78
2021-11-06 16:39:00,,0827.4,5.00,0.00,28.8,28.0,00.0,37.7,30.7,09.2,0000.0,0009.56,0003.14,0001.79
2021-11-06 16:40:00,,0827.4,5.00,0.00,28.8,28.1,00.0,37.7,30.6,09.1,0000.0,0010.31,0003.13,0001.79
2021-11-06 16:41:00,,0827.4,5.00,0.00,28.8,28.1,00.0,37.7,30.6,08.8,0000.0,0010.16,0003.16,0001.77
2021-11-06 16:42:00,,0827.4,5.00,0.00,28.8,28.1,00.0,37.8,30.7,08.8,0000.0,0010.22,0003.15,0001.76
2021-11-06 16:43:00,,0827.4,4.99,0.00,28.8,28.1,00.0,37.8,30.7,08.7,0000.0,0010.58,0003.14,0001.75
2021-11-06 16:44:00,,0827.3,5.00,0.00,28.9,28.1,00.0,37.8,30.7,08.6,0000.0,0011.13,0003.16,0001.75
2021-11-06 16:45:00,,0827.3,5.00,0.00,28.9,28.1,00.0,37.8,30.7,08.7,0000.0,0011.39,0003.21,0001.74
2021-11-06 16:46:00,,0827.3,5.01,0.00,28.9,28.1,00.0,37.8,30.7,09.0,0000.0,0011.82,0003.21,0001.72
2021-11-06 16:47:00,,0827.3,5.01,0.00,28.9,28.1,00.0,37.8,30.7,08.7,0000.0,0012.59,0003.20,0001.71
2021-11-06 16:48:00,,0827.3,4.99,0.00,28.9,28.1,00.0,37.8,30.7,08.6,0000.0,0012.70,0003.15,0001.69
2021-11-06 16:49:00,,0827.4,5.00,0.00,28.9,28.1,00.0,37.8,30.8,08.6,0000.0,0012.73,0003.13,0001.66
2021-11-06 16:50:00,,0827.3,5.01,0.00,28.9,28.1,00.0,37.9,30.8,08.7,0000.0,0012.11,0003.09,0001.64
2021-11-06 16:51:00,,0827.3,5.00,0.00,28.9,28.1,00.0,37.9,30.8,08.9,0000.0,0011.08,0003.12,0001.64
2021-11-06 16:52:00,,0827.2,5.01,0.00,29.0,28.1,00.0,37.9,30.8,09.0,0000.0,0011.08,0003.02,0001.64
2021-11-06 16:53:00,,0827.2,4.99,0.00,29.0,28.1,00.0,37.9,30.8,08.9,0000.0,0010.90,0002.97,0001.63
2021-11-06 16:54:00,,0827.2,4.99,0.00,29.0,28.1,00.0,37.9,30.8,08.9,0000.0,0010.79,0002.93,0001.61
2021-11-06 16:55:00,,0827.2,5.01,0.00,29.0,28.1,00.0,37.9,30.8,08.5,0000.0,0010.74,0002.87,0001.60
2021-11-06 16:56:00,,0827.2,4.99,0.00,29.0,28.1,00.0,37.9,30.8,08.3,0000.0,0009.94,0002.69,0001.57
2021-11-06 16:57:00,,0827.2,5.00,0.00,29.0,28.1,00.0,37.9,30.8,07.9,0000.0,0009.27,0002.58,0001.55
2021-11-06 16:58:00,,0827.2,5.00,0.00,29.0,28.2,00.0,37.9,30.8,07.7,0000.0,0008.24,0002.60,0001.54
2021-11-06 16:59:00,,0827.2,5.00,0.00,29.0,28.2,00.0,37.9,30.8,07.2,0000.0,0007.62,0002.60,0001.52
